This is the latest recevied weather packets stored in our database for station/object KB9ZI. If no packets are shown the sender has not sent any weather packets the latest 10 day(s).
| Time | Temp. | Humidity | Pressure | Rain* | Wind** | Luminosity | Snow |
|---|---|---|---|---|---|---|---|
| 1778009781 | 10° C | 48% | 1010.7 hPa | 0 mm | - | - | - |
| 1778009728 | 10° C | 49% | 1010.7 hPa | 0 mm | - | - | - |
| 1778009710 | 10° C | 48% | 1010.7 hPa | 0 mm | - | - | - |
| 1778009409 | 10° C | 48% | 1010.6 hPa | 0 mm | - | - | - |
| 1778009288 | 10° C | 47% | 1010.7 hPa | 0 mm | - | - | - |
| 1778009168 | 10° C | 47% | 1010.6 hPa | 0 mm | - | - | - |
| 1778009101 | 10° C | 47% | 1010.8 hPa | 0 mm | - | - | - |
| 1778008902 | 10° C | 50% | 1010.7 hPa | 0 mm | - | - | - |
| 1778008782 | 10° C | 48% | 1010.7 hPa | 0 mm | - | - | - |
| 1778008660 | 10.56° C | 48% | 1010.6 hPa | 0 mm | - | - | - |
| 1778008597 | 10.56° C | 46% | 1010.6 hPa | 0 mm | - | - | - |
| 1778008498 | 10.56° C | 49% | 1010.6 hPa | 0 mm | - | - | - |
| 1778008297 | 10.56° C | 54% | 1010.7 hPa | 0 mm | - | - | - |
| 1778008176 | 10.56° C | 54% | 1010.7 hPa | 0 mm | - | - | - |
| 1778008058 | 10.56° C | 54% | 1010.6 hPa | 0 mm | - | - | - |
| 1778007932 | 10° C | 52% | 1010.6 hPa | 0 mm | - | - | - |
| 1778007894 | 10° C | 49% | 1010.7 hPa | 0 mm | - | - | - |
| 1778007690 | 10° C | 49% | 1010.7 hPa | 0 mm | - | - | - |
| 1778007570 | 10° C | 52% | 1010.7 hPa | 0 mm | - | - | - |
| 1778007456 | 9.44° C | 50% | 1010.8 hPa | 0 mm | - | - | - |
| 1778007330 | 9.44° C | 47% | 1010.8 hPa | 0 mm | - | - | - |
| 1778007275 | 9.44° C | 48% | 1010.8 hPa | 0 mm | - | - | - |
| 1778007099 | 9.44° C | 49% | 1010.8 hPa | 0 mm | - | - | - |
| 1778007007 | 9.44° C | 48% | 1010.8 hPa | 0 mm | - | - | - |
| 1778006827 | 10° C | 46% | 1010.9 hPa | 0 mm | - | - | - |
* Rain latest hour (hover to see other rain measurements)
** Current wind speed in m/s (hover to see current wind gust speed)